Regional Weather Roundup
Issued by NWS

Home | Current Version | Previous Version | Text Only | Print | Product List | Glossary Off
Versions: 1 2 3 4 5 6 7 8 9 10 11 12 13 14 15 16 17 18 19 20 21 22 23 24 25 26 27 28 29 30 31 32 33 34 35 36 37 38 39 40 41 42 43 44 45 46 47 48 49 50

000
ASUS45 KSLC 301410
RWRUT

UTAH REGIONAL WEATHER ROUNDUP
NATIONAL WEATHER SERVICE SALT LAKE CITY UT
800 AM MDT THU JUL 30 2015

UTZ001>011-023>025-301500-

NORTHERN UTAH

CITY           SKY/WX    TMP DP  RH WIND       PRES   REMARKS
BRIGHAM CITY   SUNNY     54  39  57 CALM      30.31R
HILL AFB       SUNNY     59  32  35 E17       30.32R
LOGAN          SUNNY     53  38  56 CALM      30.35R
OGDEN          SUNNY     62  34  35 S8        30.30R
PROVO AIRPORT  SUNNY     57  34  41 S3        30.34R
SALT LAKE CITY MOSUNNY   65  36  34 SE7       30.30R
VERNAL         SUNNY     64  36  35 CALM      30.36R
WENDOVER       SUNNY     66  34  30 NW5       30.30R
HEBER CITY     SUNNY     52  32  46 CALM      30.44R
WEST JORDAN    SUNNY     64  36  34 CALM      30.33R

$$

UTZ012>022-026-027-301500-

SOUTHERN/CENTRAL UTAH

CITY           SKY/WX    TMP DP  RH WIND       PRES   REMARKS
BLANDING       SUNNY     68  53  59 CALM      30.46R
BRYCE CANYON   MOSUNNY   56  37  49 W7        30.49R
CEDAR CITY     MOSUNNY   66  33  29 CALM      30.33R
DELTA          SUNNY     60  27  28 CALM      30.30R
HANKSVILLE     SUNNY     68  30  24 CALM      30.28R
MILFORD        MOSUNNY   66  24  20 CALM      30.30R
MOAB/CYNLANDS  SUNNY     73  31  21 CALM      30.26R
PRICE          SUNNY     71  22  15 NE5       30.36R
ST GEORGE      SUNNY     79  37  22 S3        30.15R
KANAB          SUNNY     70  45  40 N7        30.35R

$$

REGIONAL REPORTS     COLORADO/ARIZONA

CITY           SKY/WX    TMP DP  RH WIND       PRES   REMARKS
CRAIG, CO      SUNNY     51  33  50 NW3       30.44R
GRAND JUNCTION SUNNY     68  30  24 SE12      30.31R
RIFLE          SUNNY     59  33  37 CALM      30.39R
MONTROSE       SUNNY     64  36  35 CALM      30.40R
CORTEZ         SUNNY     63  48  58 E5        30.41R
PAGE, AZ       SUNNY     76  56  49 SW3       30.25R
GRAND CANYON   SUNNY     63  50  62 CALM      30.41R
KINGMAN        CLOUDY    78  57  48 SE6       30.16R
FLAGSTAFF      CLOUDY    56  51  84 CALM      30.43R

$$

REGIONAL REPORTS    NEVADA/IDAHO/WYOMING

CITY           SKY/WX    TMP DP  RH WIND       PRES   REMARKS
LAS VEGAS, NV  PTSUNNY   88  51  28 E5        30.01R
ELY            SUNNY     51  23  33 S12       30.42R
ELKO           SUNNY     55  34  45 E3        30.34R
POCATELLO, ID  SUNNY     54  43  66 N5        30.35R
BURLEY         SUNNY     53  44  71 E3        30.31R
EVANSTON, WY   SUNNY     53  26  35 VRB3      30.49R
ROCK SPRINGS   SUNNY     58  23  26 CALM      30.47R
KEMMERER       SUNNY     48  30  49 N9        30.51R

$$



USA.gov is the U.S. government's official web portal to all federal, state and local government web resources and services.